Regional Weather Roundup
Issued by NWS

Home | Current Version | Previous Version | Text Only | Print | Product List | Glossary On
Versions: 1 2 3 4 5 6 7 8 9 10 11 12 13 14 15 16 17 18 19 20 21 22 23 24 25 26 27
000
ASUS44 KJAN 200010
RWRMS

MISSISSIPPI HOURLY WEATHER ROUNDUP
NATIONAL WEATHER SERVICE JACKSON MS
600 PM CST MON FEB 19 2018

NOTE: "FAIR: INDICATES FEW OR NO CLOUDS BELOW 12,000 FEET WITH NO
SIGNIFICANT WEATHER AND/OR OBSTRUCTIONS TO VISIBILITY.

MSZ001>002-007>008-010>013-018>021-025>028-034>036-200100-
NORTHWEST MISSISSIPPI

CITY           SKY/WX    TMP DP  RH WIND       PRES   REMARKS
BATESVILLE       N/A    N/A N/A N/A MISG        N/A
CLARKSDALE     CLEAR     72  63  73 SE10      30.03R
CLEVELAND      FAIR      71  62  73 S7        30.02S
GREENWOOD      FAIR      75  56  51 S10       30.04S
6HR MIN TEMP:  74; 6HR MAX TEMP:  80;

GREENVILLE     FAIR      73  58  59 S9        30.01R
6HR MIN TEMP:  72; 6HR MAX TEMP:  80; 6HR PCP: TRACE;

OLIVE BRANCH   MOCLDY    70  59  68 S7        30.03R
OXFORD         FAIR      72  55  56 S7        30.08R
TUNICA           N/A     68  57  68 S12       30.03S
WINONA         FAIR      74  56  53 SE6       30.07S
$$

MSZ003>006-009-014>017-022>024-029>033-037>039-200100-
NORTHEAST MISSISSIPPI

CITY           SKY/WX    TMP DP  RH WIND       PRES   REMARKS
ABERDEEN       MOCLDY    73  73 100 SE6       30.12S
COLUMBUS AFB   FAIR      73  64  73 S7        30.11R
6HR MIN TEMP:  71; 6HR MAX TEMP:  78;

CORINTH        FAIR      70  59  68 S8        30.09R
GOLDN TRIANGLE MOCLDY    73  62  68 SE10      30.12R
STARKVILLE     CLOUDY    72  63  73 S7        30.12R
TUPELO         FAIR      71  60  68 SE8       30.09S
6HR MIN TEMP:  71; 6HR MAX TEMP:  75;

$$

MSZ040-058-200100-
CENTRAL MISSISSIPPI

CITY           SKY/WX    TMP DP  RH WIND       PRES   REMARKS
JACKSON INTL   FAIR      74  58  57 S12       30.08R
6HR MIN TEMP:  74; 6HR MAX TEMP:  83;

JACKSON HAWKNS FAIR      76  58  53 S12       30.08R
6HR MIN TEMP:  76; 6HR MAX TEMP:  83;

MADISON        FAIR      73  55  53 SE3       30.08R
MERIDIAN KEY   FAIR      75  61  61 S9        30.14R
6HR MIN TEMP:  75; 6HR MAX TEMP:  82;

MERIDIAN NAS   FAIR      75  61  61 S8        30.14R
6HR MIN TEMP:  75; 6HR MAX TEMP:  81;

RAYMOND        FAIR      79  59  50 S14       30.07R
VICKSBURG VKS  PTCLDY    79  59  50 S10       30.06R
$$

MSZ059>079-200100-
SOUTH MISSISSIPPI

CITY           SKY/WX    TMP DP  RH WIND       PRES   REMARKS
COLUMBIA       FAIR      75  63  64 S9        30.17R
HATTIESBURG    FAIR      75  65  70 S12       30.15R
6HR MIN TEMP:  74; 6HR MAX TEMP:  82;

LAUREL         FAIR      74  60  62 S7        30.15R
MCCOMB         FAIR      75  61  61 S15       30.10R
6HR MIN TEMP:  75; 6HR MAX TEMP:  83;

NATCHEZ        CLOUDY    77  64  64 S12G21    30.06R
6HR MIN TEMP:  77; 6HR MAX TEMP:  83; 6HR PCP: TRACE;

PINE BELT      FAIR      74  63  68 S14G21    30.15R
6HR MIN TEMP:  74; 6HR MAX TEMP:  83;

$$

MSZ080>082-200100-
COASTAL MISSISSIPPI

CITY           SKY/WX    TMP DP  RH WIND       PRES   REMARKS
BAY ST LOUIS   MOCLDY    72  68  88 SE12      30.15R
BILOXI         MOCLDY    72  67  83 SE12      30.16R
6HR MIN TEMP:  72; 6HR MAX TEMP:  78;

PASCAGOULA     CLOUDY    72  65  78 SE13      30.17S
6HR MIN TEMP:  72; 6HR MAX TEMP:  79;

GULFPORT       CLOUDY    73  69  87 SE16      30.15S
6HR MIN TEMP:  73; 6HR MAX TEMP:  78;

$$

LAZ007>009-015>016-023>026-200100-
NORTHEAST LOUISIANA

CITY           SKY/WX    TMP DP  RH WIND       PRES   REMARKS
BASTROP        FAIR      76  59  56 S10       30.01S
TALLULAH/VBURG MOCLDY    76  61  59 S13       30.04R
6HR MIN TEMP:  75; 6HR MAX TEMP:  83;

VIDALIA        FAIR      74  63  68 S9        30.04S
$$




USA.gov is the U.S. government's official web portal to all federal, state and local government web resources and services.